User: anonymous   Login
Location: Caltech
(34.1382°N, 118.1253°W)
Time: 02:01:58
(UTC-07:00)
Language:

OPAL - Orbit

View from above orbital plane
View from above orbital plane
View from above satellite
View from above satellite

Ground track
Ground track

The orbit data is extracted from the following two-line orbital elements,

1 26063U 00004C   16120.04217304  .00000031  00000-0  30302-4 0  9998
2 26063 100.1889  41.5558 0037017  37.1519 323.2213 14.36612592851917
Epoch (UTC): 29 April 2016 01:00:43
Eccentricity: 0.0037017
inclination: 100.1889°
perigee height: 743 km
apogee height: 796 km
right ascension of ascending node: 41.5558°
argument of perigee: 37.1519°
revolutions per day: 14.36612592
mean anomaly at epoch: 323.2213°
orbit number at epoch: 85191

The dashed part of the orbit path shows where the satellite is in the earth's shadow,  

DLR